{"data":{"norad_id":43488,"intl_designator":"2018-049A","name":"SES-12","alt_names":[],"object_type":"PAYLOAD","status":"ACTIVE","operator":null,"country":"SES","launch_date":"2018-06-04","launch_site_code":"AFETR","launch_vehicle":null,"mission":null,"orbit_class":"UNKNOWN","rcs_meters":null,"size_class":null,"mass_kg":null,"dimensions":null,"purposes":["comms"],"wikipedia_slug":null,"has_3d_model":false,"image_url":null,"decayed_at":null,"tle_current":{"epoch":"2026-05-25T02:29:00.063744Z","epoch_age_seconds":66441,"freshness":"FRESH","line1":"1 43488U 18049A   26145.10347296 -.00000272  00000+0  00000+0 0  9999","line2":"2 43488   0.0399  67.7639 0001267 245.8579  61.3309  1.00271557 29184","mean_motion":1.00271557,"eccentricity":0.0001267,"inclination_deg":0.0399,"raan_deg":67.7639,"arg_perigee_deg":245.8579,"mean_anomaly_deg":61.3309,"bstar":0,"rev_number":2918,"period_min":1436.1001694628,"perigee_km":35781.316598351,"apogee_km":35792.001157626,"semimajor_km":42164.795877988,"source":"CELESTRAK","updated_at":"2026-05-25T13:38:14.514711Z"}}}